Location: Rounton
(54.4000°N, 1.3500°W)
Time: 02:16:02
(UTC+00:00)

Envisat - Pass Details

Date: 01 November 2021
Orbit: 764 x 766 km, 98.2° (Epoch: 28 November)

Event Time Altitude Azimuth Distance (km) Brightness Sun altitude
Rises 04:17:51 0° 22° (NNE) 3,246 6.7 -24.9°
Reaches altitude 10° 04:20:32 10° 34° (NE) 2,314 6.0 -24.6°
Maximum altitude 04:24:48 26° 92° (E) 1,465 5.1 -23.9°
Drops below altitude 10° 04:29:02 10° 148° (SSE) 2,299 5.7 -23.3°
Sets 04:31:41 0° 161° (SSE) 3,220 6.4 -23.0°
